Change the Weather History Date:

Friday, August 23, 2013

  Actual Average Record
Temperature  
Mean Temperature 69 °F -  
Max Temperature 81 °F 78 °F 87 °F (1996)
Min Temperature 59 °F 55 °F 45 °F (2002)
Cooling Degree Days 4    
Growing Degree Days 19 (Base 50)    
Moisture  
Dew Point 59 °F    
Average Humidity 66    
Maximum Humidity 93    
Minimum Humidity 45    
Precipitation  
Precipitation 0.00 in - - ()
Sea Level Pressure  
Sea Level Pressure 29.95 in    
Wind  
Wind Speed 5 mph (North)    
Max Wind Speed 10 mph    
Max Gust Speed 20 mph    
Visibility 10 miles    
Events      
Averages and records for this station are not official NWS values.
T = Trace of Precipitation, MM = Missing Value Source: NWS Daily Summary

Daily Weather History Graph

Daily Weather History Graph

Search for Another Location

Airport or City:

Trip Planner

Search our weather history database for the weather conditions in past years. The results will help you decide how hot, cold, wet, or windy it might be!

Date:

Astronomy

Aug. 23, 2013 Rise Set
Actual Time 6:00 AM EDT 7:32 PM EDT
Civil Twilight 5:31 AM EDT 8:02 PM EDT
Nautical Twilight 4:55 AM EDT 8:37 PM EDT
Astronomical Twilight 4:17 AM EDT 9:15 PM EDT
Moon 8:45 PM EDT (8/23) 8:57 AM EDT (8/23)
Length of Visible Light 14h 30m
Length of Day
13h 32m
Waning Gibbous, 91% of the Moon is Illuminated
Aug 23
Waning Gibbous
Aug 28
Last Quarter
Sep 5
New
Sep 12
First Quarter
Sep 19
Full

Hourly Weather History & Observations

Time (EDT) Temp. Dew Point Humidity Pressure Visibility Wind Dir Wind Speed Gust Speed Precip Events Conditions
12:53 AM 72.0 °F 68.0 °F 87% 29.82 in 9.0 mi WSW 5.8 mph - N/A   Clear
1:53 AM 71.1 °F 68.0 °F 90% 29.83 in 9.0 mi WSW 6.9 mph - N/A   Clear
2:53 AM 68.0 °F 66.0 °F 93% 29.82 in 7.0 mi Calm Calm - N/A   Partly Cloudy
3:53 AM 72.0 °F 66.0 °F 81% 29.83 in 10.0 mi NW 4.6 mph - N/A   Mostly Cloudy
4:53 AM 72.0 °F 62.1 °F 71% 29.84 in 10.0 mi NNW 6.9 mph - N/A   Clear
5:53 AM 70.0 °F 61.0 °F 73% 29.86 in 10.0 mi NW 4.6 mph - N/A   Clear
7:53 AM 72.0 °F 60.1 °F 66% 29.90 in 10.0 mi NNW 10.4 mph 19.6 mph N/A   Clear
8:53 AM 73.9 °F 60.1 °F 62% 29.91 in 10.0 mi NNW 9.2 mph 17.3 mph N/A   Clear
9:53 AM 73.9 °F 59.0 °F 59% 29.93 in 10.0 mi Variable 5.8 mph - N/A   Clear
10:53 AM 75.0 °F 57.9 °F 55% 29.95 in 10.0 mi North 9.2 mph - N/A   Clear
11:53 AM 77.0 °F 59.0 °F 54% 29.94 in 10.0 mi NE 8.1 mph - N/A   Scattered Clouds
12:53 PM 79.0 °F 57.0 °F 47% 29.94 in 10.0 mi NNW 8.1 mph - N/A   Mostly Cloudy
1:53 PM 79.0 °F 55.9 °F 45% 29.95 in 10.0 mi Calm Calm - N/A   Partly Cloudy
2:53 PM 78.1 °F 55.9 °F 46% 29.96 in 10.0 mi ENE 5.8 mph - N/A   Mostly Cloudy
3:53 PM 78.1 °F 57.0 °F 48% 29.97 in 10.0 mi East 6.9 mph - N/A   Mostly Cloudy
4:53 PM 75.9 °F 57.0 °F 52% 29.98 in 10.0 mi ENE 5.8 mph - N/A   Clear
5:53 PM 73.9 °F 55.9 °F 53% 29.99 in 10.0 mi East 5.8 mph - N/A   Clear
6:53 PM 73.0 °F 55.0 °F 53% 30.01 in 10.0 mi Calm Calm - N/A   Clear
7:53 PM 66.0 °F 57.9 °F 75% 30.03 in 8.0 mi Calm Calm - N/A   Clear
8:53 PM 63.0 °F 57.9 °F 84% 30.06 in 10.0 mi Calm Calm - N/A   Clear
9:53 PM 60.1 °F 57.0 °F 90% 30.08 in 10.0 mi Calm Calm - N/A   Partly Cloudy
10:53 PM 59.0 °F 55.9 °F 90% 30.09 in 10.0 mi Calm Calm - N/A   Overcast
11:53 PM 66.0 °F 48.9 °F 54% 30.12 in 10.0 mi NNW 6.9 mph - N/A   Mostly Cloudy